Overview Statistics Trail Chart Weather Telemetry Raw packets
 

This is the latest recevied weather packets stored in our database for station/object HP3ICC-23. If no packets are shown the sender has not sent any weather packets the latest 10 day(s).

<< 38 39 40 41 42 43 44 >>
Time Temp. Humidity Pressure Rain* Wind** Luminosity Snow
1788033587 16.11° C 71% 1011 hPa 0 mm - - -
1788032447 16.11° C 70% 1011 hPa 0 mm - - -
1788032387 16.11° C 70% 1011 hPa 0 mm - - -
1788031246 16.67° C 68% 1012 hPa 0 mm - - -
1788031186 16.67° C 68% 1012 hPa 0 mm - - -
1788030046 16.67° C 68% 1012 hPa 0 mm - - -
1788029986 16.67° C 68% 1012 hPa 0 mm - - -
1788028786 16.67° C 68% 1012 hPa 0 mm - - -
1788027646 17.78° C 68% 1012 hPa 0 mm - - -
1788027586 17.78° C 68% 1012 hPa 0 mm - - -
1788026445 17.22° C 68% 1012 hPa 0 mm - - -
1788026385 17.22° C 68% 1012 hPa 0 mm - - -
1788025245 17.22° C 69% 1013 hPa 0 mm - - -
1788025185 17.22° C 69% 1013 hPa 0 mm - - -
1788024045 16.67° C 71% 1013 hPa 0 mm - - -
1788023985 16.67° C 71% 1013 hPa 0 mm - - -
1788022844 16.11° C 70% 1013 hPa 0 mm - - -
1788021644 16.11° C 71% 1013 hPa 0 mm - - -
1788021584 16.11° C 71% 1013 hPa 0 mm - - -
1788020444 15.56° C 73% 1013 hPa 0 mm - - -
1788020384 15.56° C 73% 1013 hPa 0 mm - - -
1788019245 15.56° C 71% 1013 hPa 0 mm - - -
1788019184 15.56° C 71% 1013 hPa 0 mm - - -
1788017983 15.56° C 72% 1013 hPa 0 mm - - -
1788016843 15.56° C 75% 1013 hPa 0 mm - - -

* Rain latest hour (hover to see other rain measurements)
** Current wind speed in m/s (hover to see current wind gust speed)